Regional Weather Roundup
Issued by NWS

Home | Current Version | Previous Version | Graphics & Text | Print | Product List | Glossary On
Versions: 1 2 3 4 5 6 7 8 9 10 11 12 13 14 15 16 17 18 19 20 21 22 23 24 25 26 27 28 29 30 31 32 33 34 35 36 37 38 39 40 41 42 43 44 45 46 47 48 49 50
000
ASUS43 KLMK 210602
RWRKY
KENTUCKY REGIONAL WEATHER ROUNDUP
NATIONAL WEATHER SERVICE LOUISVILLE KY
200 AM EDT FRI JUL 21 2017

NOTE "FAIR" INDICATES FEW OR NO CLOUDS BELOW 12,000 FEET
WITH NO SIGNIFICANT WEATHER AND/OR OBSTRUCTIONS TO VISIBILITY.

KYZ001>023-026-027-061>063-070>075-210700-
WESTERN AND SOUTH CENTRAL KENTUCKY

CITY           SKY/WX    TMP DP  RH WIND       PRES   REMARKS
PADUCAH        PTCLDY    81  74  79 VRB3      30.00S
HENDERSON      CLEAR     75  73  93 S3        30.01S
OWENSBORO      CLEAR     77  74  90 S5        30.01F
HOPKINSVILLE   PTCLDY    79  75  88 CALM      30.02F
BOWLING GREEN  CLEAR     79  75  87 CALM      30.03F
GLASGOW        NOT AVBL
$$

KYZ024-025-028>034-038-045-046-053-210700-
NORTH CENTRAL KENTUCKY

CITY           SKY/WX    TMP DP  RH WIND       PRES   REMARKS
LOUISVILLE/SDF PTCLDY    84  74  71 S6        30.00F HX  91
LOUISVILLE/LOU CLEAR     81  76  84 S5        30.01F
FORT KNOX      CLEAR     76  74  92 S5        30.02S
$$

KYZ035>037-039>044-047>052-055>060-089>105-210700-
NORTHEAST KENTUCKY

CITY           SKY/WX    TMP DP  RH WIND       PRES   REMARKS
LEXINGTON      CLEAR     77  71  82 S5        30.05F
COVINGTON      CLEAR     80  74  81 SW7       30.01F
FRANKFORT      CLEAR     77  72  84 SW3       30.02F
$$

KYZ054-064>069-076>088-106>120-210700-
SOUTHEAST KENTUCKY

CITY           SKY/WX    TMP DP  RH WIND       PRES   REMARKS
JACKSON        CLEAR     75  71  87 CALM      30.08F
LONDON         CLOUDY    74  71  91 CALM      30.08F
SOMERSET       CLEAR     72  72 100 CALM      30.08S FOG
MIDDLESBORO    CLEAR     71  71  99 CALM      30.10F
MONTICELLO     PTCLDY    72  71  97 CALM      30.09S FOG
$$





USA.gov is the U.S. government's official web portal to all federal, state and local government web resources and services.